TimeMST,TemperatureF,Dew PointF,Humidity,Sea Level PressureIn,VisibilityMPH,Wind Direction,Wind SpeedMPH,Gust SpeedMPH,PrecipitationIn,Events,Conditions,WindDirDegrees,DateUTC
12:53 AM,30.9,25.0,79,29.56,10.0,West,6.9,-,0.00,,Overcast,280,2011-11-14 07:53:00
1:53 AM,30.9,25.0,79,29.55,10.0,SSW,10.4,-,N/A,,Overcast,210,2011-11-14 08:53:00
2:53 AM,30.9,24.1,76,29.56,10.0,WSW,4.6,-,N/A,,Overcast,250,2011-11-14 09:53:00
3:53 AM,28.0,21.9,78,29.55,10.0,SW,5.8,-,N/A,,Clear,220,2011-11-14 10:53:00
4:53 AM,28.9,21.9,75,29.55,10.0,SSW,11.5,-,N/A,,Clear,210,2011-11-14 11:53:00
5:53 AM,28.9,21.0,72,29.55,10.0,WSW,9.2,29.9,N/A,,Partly Cloudy,250,2011-11-14 12:53:00
6:53 AM,28.9,21.0,72,29.58,10.0,WNW,6.9,-,N/A,,Overcast,290,2011-11-14 13:53:00
7:53 AM,28.0,19.9,72,29.59,10.0,Calm,Calm,-,N/A,,Clear,0,2011-11-14 14:53:00
8:53 AM,35.1,23.0,61,29.58,10.0,Calm,Calm,-,N/A,,Clear,0,2011-11-14 15:53:00
9:53 AM,34.0,24.1,67,29.56,10.0,Calm,Calm,-,N/A,,Clear,0,2011-11-14 16:53:00
10:53 AM,39.0,24.1,55,29.53,10.0,Calm,Calm,-,N/A,,Clear,0,2011-11-14 17:53:00
11:53 AM,46.0,15.1,29,29.47,10.0,West,13.8,20.7,N/A,,Clear,270,2011-11-14 18:53:00
12:53 PM,46.0,12.0,25,29.44,10.0,West,15.0,21.9,N/A,,Scattered Clouds,270,2011-11-14 19:53:00
1:53 PM,45.0,10.0,24,29.43,10.0,WNW,20.7,32.2,N/A,,Overcast,290,2011-11-14 20:53:00
2:53 PM,46.0,10.9,24,29.43,10.0,WNW,19.6,32.2,N/A,,Scattered Clouds,290,2011-11-14 21:53:00
3:46 PM,39.2,17.6,42,29.44,10.0,NNW,12.7,-,N/A,,Partly Cloudy,340,2011-11-14 22:46:00
3:53 PM,39.9,18.0,41,29.49,10.0,NNW,11.5,-,N/A,,Partly Cloudy,340,2011-11-14 22:53:00
4:53 PM,33.1,18.0,54,29.54,10.0,NNW,5.8,-,N/A,,Clear,330,2011-11-14 23:53:00
5:53 PM,26.6,17.6,69,29.52,10.0,West,5.8,-,N/A,,Scattered Clouds,280,2011-11-15 00:53:00
6:53 PM,33.1,21.0,61,29.62,10.0,NW,10.4,-,N/A,,Mostly Cloudy,310,2011-11-15 01:53:00
7:53 PM,28.4,23.0,80,29.56,10.0,NNW,5.8,-,N/A,,Overcast,340,2011-11-15 02:53:00
8:53 PM,24.1,19.9,84,29.65,10.0,NW,3.5,-,N/A,,Scattered Clouds,310,2011-11-15 03:53:00
9:53 PM,25.0,21.9,88,29.67,10.0,SW,3.5,-,N/A,,Scattered Clouds,230,2011-11-15 04:53:00
10:53 PM,24.1,21.9,91,29.68,10.0,WNW,3.5,-,N/A,,Overcast,290,2011-11-15 05:53:00
11:00 PM,24.8,23.0,93,29.61,10.0,West,3.5,-,N/A,,Overcast,260,2011-11-15 06:00:00
11:53 PM,25.0,21.9,88,29.63,10.0,South,6.9,-,N/A,,Mostly Cloudy,180,2011-11-15 06:53:00